Flag for Switzerland Weather past 2 weeks in Altdorf, Uri, Switzerland

Now
58 °F

Overcast.


Feels Like: 58 °F
Forecast: 46 / 69 °F
Wind: 3 mph from Northwest

Location: Altdorf

Current Time: May 24, 2015 at 12:01:04 PM

Latest Report: May 24, 2015 at 11:00 AM


Visibility: 9 mi

Pressure: 30.04 "Hg

Humidity: 68%

Dew point: 47 °F

Location of AltdorfLocation

Historic Weather in Altdorf — Graph

°F

Altdorf temperature yesterday

Maximum temperature yesterday: 57 °F (at 5:00 PM)
Minimum temperature yesterday: 48 °F (at 6:00 AM)
Average temperature yesterday: 53 °F

Past Weeks' High & Low Weather Summary

 TemperatureHumidityPressure
High79 °F (May 13, 5:00 PM)93% (May 16, 1:00 AM)30.39 "Hg (May 16, 1:00 AM)
Low42 °F (May 15, 5:00 PM)32% (May 14, 1:00 AM)29.72 "Hg (May 18, 6:00 PM)
Average57 °F73%30.10 "Hg
* Reported May 9 10:00 AM — May 24 10:00 AM, Altdorf, Weather by CustomWeather, © 2015

Note: Actual official high and low records may vary slightly from our data, if they occured in-between our weather recording intervals... More about our weather records

Advertising

Altdorf weather history for previous 24 hours

 ConditionsComfort  
Time TempWeatherWind HumidityBarometerVisibility
10:00 AM
Sun, May 24
56 °FCool.5 mph71%30.06 "HgN/A
9:00 AM54 °FCool.3 mph72%30.06 "HgN/A
8:00 AM52 °FPartly sunny.1 mph76%30.06 "Hg11 mi
7:00 AM50 °FCool.2 mph88%30.06 "HgN/A
6:00 AM49 °FCool.2 mph87%30.05 "HgN/A
5:00 AM50 °FPassing clouds.2 mph82%30.04 "Hg9 mi
4:00 AM51 °FCool.3 mph81%30.06 "HgN/A
3:00 AM51 °FCool.1 mph80%30.07 "HgN/A
2:00 AM51 °FOvercast.2 mph85%30.08 "Hg9 mi
1:00 AM51 °FCool.No wind81%30.09 "HgN/A
12:00 AM51 °FCool.2 mph81%30.09 "HgN/A
10:00 PM
Sat, May 23
52 °FCool.3 mph79%30.08 "HgN/A
9:00 PM53 °FCool.1 mph82%30.06 "HgN/A
8:00 PM56 °FOvercast.2 mph71%30.05 "Hg16 mi
7:00 PM56 °FCool.1 mph65%30.04 "HgN/A
6:00 PM56 °FCool.3 mph67%30.05 "HgN/A
5:00 PM57 °FOvercast.7 mph64%30.05 "Hg9 mi
4:00 PM57 °FCool.9 mph61%30.05 "HgN/A
3:00 PM56 °FCool.8 mph62%30.05 "HgN/A
2:00 PM56 °FOvercast.9 mph68%30.06 "Hg9 mi
1:00 PM55 °FCool.9 mph71%30.06 "HgN/A
12:40 PM56 °FCool.6 mph71%30.06 "HgN/A
12:00 PM56 °FCool.6 mph72%30.06 "HgN/A
Weather by CustomWeather, © 2015

See weather overviewHow to use our weather pages